Theta_e
337 337 341 346 351 355 354 355 355 355 355 355 355 354 353 354 353 352 351 351 350 349 348 347 348 348 348 348 348 348 349 350 350 351 351 351 351 352 351 352 351 350 349 348 349 349 349 349 348 347 348 348 348 348 349 349 348 348 348 347 345 345 346 347 348 348 348 349 350 350 349 350 350 351 351 351 352 351 350 349 349 349 351 351 352
335 338 341 348 350 354 355 355 355 355 354 355 355 354 353 353 352 352 351 350 350 349 347 347 347 347 348 347 348 349 350 350 350 350 350 350 350 350 350 351 351 351 349 348 348 349 348 347 346 347 347 346 346 345 345 345 345 345 345 345 343 343 344 345 347 347 347 347 347 347 348 349 350 350 351 351 351 351 349 349 348 349 350 350 352
332 338 341 347 348 353 354 355 355 355 354 355 354 353 354 353 352 351 351 350 349 348 347 347 347 348 347 347 348 349 349 350 349 349 349 349 349 348 349 350 350 350 350 350 349 348 348 347 346 345 345 343 342 342 342 342 342 343 343 343 343 343 345 344 345 346 347 346 345 345 344 347 347 348 349 349 350 350 348 348 348 347 348 349 349
333 337 341 345 345 349 353 354 355 355 355 355 354 354 353 353 352 351 351 350 350 348 347 346 347 347 347 348 349 349 348 348 348 348 348 348 348 348 348 349 349 349 349 348 348 348 347 346 345 344 343 342 342 341 340 339 340 340 341 341 341 342 344 344 344 344 346 345 344 344 347 348 347 347 347 347 348 348 347 347 347 348 348 348 348
334 337 342 346 349 349 351 353 355 355 356 355 354 354 353 353 352 351 351 350 350 349 347 346 346 347 347 348 348 348 348 348 347 347 347 348 348 348 348 348 348 349 348 348 347 347 347 346 345 344 343 342 341 340 339 338 337 338 339 339 340 341 344 344 343 344 344 344 343 344 347 347 348 346 346 347 347 346 345 344 345 346 346 347 348
334 338 343 346 349 352 349 352 355 356 356 355 354 354 353 353 352 351 350 350 350 349 348 346 346 346 348 348 348 348 348 347 347 347 347 347 347 348 348 347 348 349 348 348 347 346 346 346 345 344 342 341 340 339 338 336 335 335 337 338 338 341 343 343 342 342 342 341 341 346 345 346 346 345 345 346 346 345 345 345 344 344 344 344 345
335 339 344 346 348 349 347 351 355 356 355 355 355 354 353 353 352 351 351 350 350 348 348 347 346 346 348 348 348 348 347 347 347 346 346 347 347 347 347 347 348 348 348 347 347 346 346 346 344 343 342 340 338 337 336 334 333 333 334 335 337 340 342 342 342 341 339 342 346 345 345 345 346 346 345 346 345 345 345 345 345 344 344 343 343
336 340 344 345 348 347 345 351 354 355 355 355 354 354 353 353 352 351 351 350 350 349 348 347 346 346 348 348 348 347 347 347 346 346 346 347 346 346 346 347 347 347 347 346 345 346 346 345 344 342 340 339 337 337 335 333 332 331 332 333 336 340 341 341 340 340 338 342 343 344 344 345 347 346 346 345 345 345 345 345 344 343 342 342 341
336 339 343 345 347 343 344 347 353 355 355 355 354 354 354 352 352 351 351 350 349 349 348 347 346 346 347 348 348 347 347 346 346 346 345 345 345 345 346 346 346 346 347 346 346 346 345 343 342 341 339 338 336 335 333 332 330 329 331 333 337 339 340 339 337 337 339 341 341 342 344 345 346 345 345 345 344 345 344 343 343 343 342 340 340
335 338 342 345 347 341 344 346 353 354 354 355 354 354 353 352 352 351 351 350 349 349 348 347 346 346 348 347 348 348 347 347 346 345 344 345 346 346 346 345 346 345 345 345 345 344 343 342 341 340 339 336 334 332 331 329 328 328 331 333 338 339 338 337 337 337 341 342 343 343 344 343 345 345 344 343 344 344 343 342 342 342 341 340 339
333 338 341 343 346 340 344 349 351 351 354 354 354 353 352 352 352 351 350 350 349 349 348 348 348 347 348 347 348 347 348 347 346 344 345 345 345 347 346 346 346 346 345 344 344 343 342 341 340 339 337 335 333 331 328 327 327 328 330 333 337 337 337 335 336 340 341 342 342 343 343 339 345 344 344 344 344 343 342 342 342 341 341 341 340
332 334 338 341 339 339 343 346 348 352 352 353 353 353 353 352 351 351 351 350 349 349 348 348 348 348 348 348 348 348 347 347 346 345 345 345 345 346 346 346 346 345 345 344 342 341 339 340 340 338 336 334 331 328 326 325 326 327 330 334 336 335 335 334 335 336 338 339 341 342 342 342 343 344 343 344 344 342 341 340 341 341 340 340 339
333 334 337 339 342 338 341 345 345 350 352 352 353 353 352 351 351 350 350 350 350 349 348 348 349 348 348 348 347 347 347 347 346 345 345 345 345 346 346 346 345 344 343 343 341 340 341 340 339 339 336 333 330 327 324 324 325 327 330 333 334 333 332 331 335 337 338 339 338 339 341 343 344 345 343 343 343 341 340 339 339 338 339 338 337
332 334 335 338 340 336 337 340 343 347 350 351 352 352 352 352 351 351 350 351 350 349 349 348 348 348 347 347 347 347 348 347 346 346 345 346 346 345 345 345 344 343 342 342 340 340 340 343 341 338 334 332 329 326 324 323 325 327 329 332 332 330 327 328 330 335 334 335 336 337 338 340 343 343 341 340 340 339 338 337 336 337 336 335 335
332 333 335 336 337 340 334 337 340 341 346 349 350 351 352 352 352 351 350 349 350 350 349 349 349 348 348 348 347 348 347 347 347 345 345 345 346 345 345 343 343 342 341 340 339 338 339 340 340 337 334 331 328 325 322 323 324 326 328 330 329 326 322 327 329 330 332 334 333 333 336 337 339 342 338 338 337 337 336 335 335 335 334 332 331
331 332 333 335 336 338 340 336 335 336 340 344 346 348 349 351 350 350 350 350 349 349 349 349 348 349 349 348 348 348 347 347 346 345 346 345 344 344 343 343 343 342 341 340 338 337 340 340 337 335 332 330 328 324 323 322 323 325 327 328 327 325 321 322 327 327 329 330 330 331 334 337 339 337 337 335 337 336 335 334 334 333 331 330 329
328 330 333 335 335 337 338 340 339 333 334 336 340 341 344 347 348 349 348 348 348 349 349 349 348 348 349 349 349 347 346 347 345 344 344 345 344 343 344 343 342 341 341 339 337 339 341 338 336 333 331 329 326 323 321 322 323 325 326 327 325 323 320 319 327 326 328 329 329 331 334 338 338 337 334 338 335 334 334 333 333 331 329 327 328
322 328 333 334 334 335 336 338 341 342 344 339 333 337 341 345 345 345 345 346 346 347 347 347 347 346 345 344 343 343 344 345 344 345 345 345 344 342 343 343 342 342 340 338 339 340 339 336 334 332 330 328 325 322 321 321 322 323 326 326 324 322 320 318 327 326 328 327 330 331 333 334 335 336 336 335 333 332 332 332 330 329 327 326 326
321 324 327 331 333 334 336 338 340 343 344 344 345 342 334 339 341 342 342 343 343 343 343 342 341 343 342 340 339 337 337 338 337 340 341 340 338 336 341 343 341 341 339 337 339 339 337 335 334 332 330 327 325 322 320 320 321 322 324 322 319 316 314 319 323 326 327 328 328 330 332 333 333 334 335 335 333 333 331 330 328 326 324 326 328
317 322 326 328 329 332 335 337 339 341 343 344 344 344 336 331 336 338 339 340 340 341 340 338 336 336 337 336 333 334 332 337 328 337 334 339 337 336 337 338 343 340 339 337 339 338 337 335 333 331 329 327 324 320 319 319 319 321 321 319 315 313 321 321 321 324 324 325 324 328 329 333 332 333 333 333 332 331 329 328 326 326 326 327 327
314 317 320 326 328 330 332 335 337 340 342 343 343 344 343 331 332 332 334 336 337 337 336 332 329 328 331 329 326 337 340 342 340 343 328 342 331 327 333 337 341 341 339 339 339 337 336 335 333 331 329 325 321 319 319 318 317 317 318 315 311 319 317 319 321 322 322 321 324 326 328 331 330 332 331 330 329 328 328 327 324 327 327 327 327
307 308 311 315 319 327 331 333 335 337 340 342 343 343 344 337 343 342 342 339 333 332 337 342 331 341 324 332 337 337 341 342 343 334 342 340 335 324 329 335 339 336 336 339 339 337 336 334 333 331 327 321 314 315 310 307 310 312 311 309 315 316 316 317 319 319 318 320 320 323 329 329 329 330 330 328 327 327 327 326 327 327 328 327 326
301 303 306 309 312 317 326 331 333 336 338 340 341 342 342 342 343 342 341 335 338 334 343 340 341 340 339 339 334 336 337 339 339 336 338 328 336 324 328 331 334 332 334 337 338 337 335 334 332 329 322 315 313 311 307 306 305 304 305 310 313 314 314 315 317 316 316 317 319 319 328 330 328 329 328 327 326 328 327 327 327 327 326 325 324
300 301 303 307 307 309 313 324 332 334 336 338 340 341 342 342 343 343 342 341 343 342 340 341 342 340 338 337 336 336 336 338 329 325 327 335 334 322 325 328 329 327 328 333 333 334 334 333 330 324 316 311 311 308 305 303 303 304 305 306 311 310 313 314 314 314 313 314 315 316 324 329 330 328 328 328 326 326 327 327 327 326 326 325 325
300 301 304 303 304 305 307 313 324 334 335 336 337 339 341 342 342 342 342 341 339 339 340 340 338 339 340 338 336 335 338 339 337 336 336 337 336 334 331 334 334 333 325 333 335 335 330 328 325 316 314 312 311 307 305 302 302 303 304 304 305 308 311 312 312 313 313 312 315 313 319 324 329 330 329 328 327 326 327 328 325 326 325 324 324
300 301 301 303 304 305 307 308 312 326 334 335 336 338 339 340 340 341 341 341 341 341 340 339 338 340 340 339 337 337 337 337 336 336 338 338 338 335 330 330 331 331 330 330 331 331 325 324 323 319 312 310 308 305 304 301 302 302 302 304 303 305 307 310 310 311 311 312 314 310 315 319 324 329 330 330 329 327 326 327 327 326 326 325 324
299 300 302 303 305 307 309 309 310 320 330 335 336 337 337 339 339 340 340 340 342 341 340 339 338 337 338 339 337 335 335 335 335 334 334 331 330 332 331 329 330 331 330 329 329 328 327 325 322 317 311 309 304 302 303 302 301 303 302 303 303 303 304 306 307 308 308 308 308 307 311 315 321 325 328 330 330 329 328 327 326 327 326 325 325
299 300 301 303 306 308 310 311 310 318 327 333 335 336 337 337 338 337 339 338 336 339 340 337 336 336 336 336 335 337 335 334 333 331 331 330 331 330 331 330 328 325 326 328 326 324 322 321 319 313 313 310 307 303 303 303 302 302 304 303 303 303 303 303 304 306 306 307 307 305 307 313 316 320 324 326 330 330 328 327 327 328 327 325 324
298 299 301 304 305 308 312 313 312 319 325 331 333 335 336 337 336 336 337 335 338 336 338 338 337 334 336 336 334 334 335 336 333 333 332 330 329 331 329 326 326 326 324 324 325 323 321 320 320 316 314 313 309 306 304 305 304 303 302 305 304 303 303 303 303 304 305 305 305 306 307 310 313 316 320 323 326 331 332 329 327 327 328 326 324
297 298 300 303 305 307 312 314 316 319 325 329 331 333 333 334 334 334 334 331 338 338 336 334 334 334 333 333 334 335 335 333 331 329 331 331 329 325 326 326 326 324 323 324 323 323 322 320 318 316 313 312 310 307 305 306 305 304 303 304 304 303 302 302 303 303 304 304 305 305 304 307 310 313 316 319 323 326 330 332 329 328 327 326 326
297 298 299 301 303 307 312 314 316 315 324 328 328 330 331 332 331 334 335 335 334 334 335 335 333 332 331 331 331 332 334 334 332 330 330 331 329 326 323 324 326 324 323 321 319 319 319 318 317 317 315 312 312 306 306 307 305 303 302 303 303 301 301 301 301 302 302 304 304 304 305 304 306 309 313 317 320 323 326 330 330 328 328 327 327
295 297 298 300 303 305 310 313 315 318 322 324 324 327 327 328 329 331 331 332 335 334 333 333 332 334 332 332 331 330 327 329 330 328 327 326 327 328 327 327 328 327 322 320 317 316 316 316 316 316 314 314 310 305 304 308 307 303 301 302 301 301 301 300 301 301 301 303 303 304 304 304 302 305 309 314 318 320 323 325 328 329 330 328 328
296 296 297 299 300 302 306 311 315 316 318 320 323 325 326 326 326 325 326 325 325 324 323 322 323 324 324 324 325 325 326 326 328 330 328 326 325 324 324 325 326 325 324 322 319 316 316 315 313 312 312 311 309 305 303 305 306 304 301 301 300 301 300 300 300 300 301 302 303 303 304 304 305 304 305 308 312 316 320 323 325 328 328 329 329
295 296 297 298 300 302 306 310 314 315 316 318 318 318 318 318 318 318 317 318 318 317 317 318 318 319 319 318 320 320 321 322 322 322 324 325 325 326 325 324 321 320 320 319 319 318 318 316 312 313 310 312 310 309 308 309 307 302 302 300 300 301 300 300 300 300 300 301 302 302 304 304 305 306 307 305 307 311 315 319 321 324 327 328 329
294 295 296 297 298 300 304 309 311 315 316 316 316 315 315 315 315 315 315 314 314 313 313 314 314 315 314 314 315 316 319 319 321 321 319 319 318 318 318 318 317 318 318 316 317 316 317 316 311 312 307 308 311 311 309 311 310 309 307 302 302 300 299 300 299 300 300 301 300 302 302 303 305 305 306 308 305 306 308 313 318 321 324 326 327
293 293 295 297 298 299 302 306 310 312 314 314 314 313 312 312 311 310 310 310 310 310 310 310 310 310 310 310 311 312 314 316 317 318 317 316 316 315 315 314 314 314 314 313 314 313 313 312 310 313 312 311 309 311 307 308 306 306 304 302 300 299 300 299 300 300 299 298 299 300 301 302 303 304 304 307 307 307 304 308 313 317 318 319 322
292 293 293 296 296 298 299 301 304 309 311 311 312 311 309 308 307 307 306 306 305 305 306 306 307 306 306 307 308 308 310 312 312 314 313 313 313 313 313 313 313 313 312 312 311 310 310 310 309 307 308 309 309 309 308 305 303 302 301 301 300 299 300 300 299 299 298 298 299 299 300 301 302 301 305 305 306 307 305 305 309 311 311 313 317
292 292 293 294 295 296 298 299 301 303 307 308 308 308 306 305 304 303 302 301 301 301 300 301 301 302 302 302 304 305 306 308 309 310 310 310 310 311 311 313 313 312 312 311 309 310 309 309 308 305 304 305 305 303 303 302 300 300 300 301 300 298 298 298 298 297 298 299 298 299 299 300 301 302 303 304 304 305 306 305 304 306 306 309 314
291 292 292 293 295 295 296 297 298 300 303 305 306 306 305 303 302 300 299 299 298 298 298 297 298 298 298 299 300 301 303 305 306 307 307 307 307 308 308 310 311 311 310 310 308 308 307 307 308 307 303 301 302 301 300 299 299 298 298 299 297 298 298 297 296 297 297 298 298 298 298 298 299 300 301 303 303 303 304 305 306 307 308 305 310
290 291 292 292 293 294 295 295 296 298 300 301 303 302 301 300 300 300 297 296 296 296 296 295 295 295 296 296 296 297 299 300 302 304 305 305 305 306 306 307 307 307 307 306 306 305 305 305 304 304 305 302 299 299 297 298 298 297 298 299 299 298 298 297 297 297 297 297 297 297 297 298 297 299 299 300 301 302 302 303 302 304 305 305 305
289 289 290 291 291 292 293 293 294 296 297 298 298 299 299 298 297 295 294 295 295 295 294 293 293 293 293 294 295 295 296 297 298 299 301 302 303 303 304 305 306 305 304 304 304 304 304 304 303 302 302 302 300 298 298 298 298 300 299 300 300 299 296 296 296 296 296 296 296 295 296 296 297 297 298 298 299 300 300 301 302 303 303 304 304
287 288 288 289 290 291 291 292 293 294 295 296 297 297 297 296 295 294 293 292 292 292 291 291 291 292 292 292 293 293 294 294 295 296 297 298 299 299 300 301 303 303 303 303 302 302 303 302 303 303 301 300 299 296 297 299 299 295 296 298 299 299 298 294 295 296 297 297 296 295 295 295 296 297 296 296 297 297 298 299 300 301 302 302 303
286 286 287 288 289 290 290 291 292 293 294 295 296 295 295 296 295 294 293 291 292 292 291 291 291 290 290 291 291 292 292 292 293 294 294 295 296 296 297 297 298 300 299 298 299 299 300 301 302 301 301 300 298 297 298 298 298 295 295 294 295 296 301 299 296 297 298 296 294 295 295 295 295 295 295 296 296 297 297 298 299 300 300 301 302
285 285 286 287 288 288 289 290 290 291 292 294 295 295 294 293 293 293 292 292 290 291 290 290 289 288 287 289 289 290 291 291 292 292 292 293 293 294 294 295 295 296 297 296 296 296 296 297 298 299 301 299 300 300 297 297 297 298 298 296 295 291 294 296 294 298 296 293 293 295 295 295 295 295 295 296 297 296 296 296 297 298 298 299 300
285 284 285 285 286 287 288 289 289 290 290 291 292 294 294 293 292 292 292 290 290 289 288 286 287 287 286 286 287 288 288 289 290 291 291 291 292 292 292 293 293 294 295 294 294 294 295 296 296 296 297 297 297 298 298 297 298 299 299 297 296 293 293 294 293 297 293 298 299 297 295 294 295 295 295 296 296 295 295 295 296 296 296 297 297
284 284 285 285 285 286 287 288 289 289 289 290 291 291 291 291 291 289 287 286 285 285 284 284 284 285 285 286 287 287 287 287 288 288 289 289 289 290 291 291 291 292 292 293 293 294 294 294 295 295 295 296 295 295 295 297 297 296 297 299 300 296 292 293 292 293 297 298 296 294 296 296 294 294 294 294 296 296 295 295 295 295 296 295 296
284 284 284 284 285 285 286 287 287 288 289 289 290 290 289 289 287 287 286 285 284 284 285 286 285 285 286 286 286 287 287 287 287 287 288 288 288 288 289 289 289 290 290 291 291 291 292 293 294 294 294 295 295 294 293 294 296 296 296 296 295 294 294 291 289 290 291 294 295 296 297 298 295 293 294 295 295 295 296 295 295 296 296 295 295
283 284 284 284 284 284 285 285 286 286 287 288 289 289 287 287 286 286 285 285 284 284 285 285 286 286 285 285 286 286 286 286 286 287 287 287 287 287 288 288 288 288 289 289 289 290 291 292 292 293 293 293 293 293 293 293 292 293 294 294 294 295 294 293 293 290 288 286 291 296 295 295 295 296 295 295 295 295 295 296 296 295 295 295 295
283 283 283 283 284 284 284 284 284 285 285 286 287 287 287 286 285 285 284 285 285 284 285 285 285 286 285 285 285 286 286 286 286 286 286 286 287 286 287 287 287 287 287 288 288 289 289 290 290 290 290 291 292 292 293 292 292 292 292 293 293 293 293 293 293 291 289 288 289 292 292 295 295 295 295 295 295 294 295 295 295 295 295 295 295
283 283 283 283 283 284 284 283 283 284 284 285 285 285 285 285 285 284 284 283 284 284 285 284 284 285 284 284 285 285 285 285 286 286 286 286 286 286 286 286 286 286 286 287 287 288 288 288 289 289 289 289 290 290 290 291 291 292 292 292 291 291 292 292 291 290 290 290 287 287 289 289 289 293 295 295 296 296 296 295 294 295 294 295 295
283 282 283 283 283 283 283 282 282 283 283 284 284 284 284 284 284 284 284 283 284 284 283 283 284 284 283 284 284 284 285 285 285 285 285 286 286 286 286 286 286 286 285 285 285 286 287 287 287 288 287 287 288 289 289 289 290 290 290 290 290 290 290 289 289 290 289 288 288 288 289 290 289 289 292 295 295 296 295 295 294 294 295 295 295
Wind_Speed
11 7 4 8 9 9 13 13 12 12 12 12 13 13 13 13 13 12 11 10 10 9 9 8 9 10 10 9 10 10 10 10 9 10 10 10 9 9 9 8 9 11 12 13 13 14 14 14 14 14 14 14 14 14 16 15 15 14 14 14 14 15 14 13 14 13 12 13 13 12 11 12 12 13 13 14 14 14 13 13 11 9 8 12 15
8 9 5 8 9 9 12 13 13 12 12 12 13 13 13 12 13 11 11 11 10 10 9 8 9 9 9 9 9 9 10 10 10 9 10 9 9 9 9 9 10 10 12 13 13 14 14 14 14 14 14 14 14 13 13 13 13 13 13 13 13 13 12 12 12 12 12 11 11 11 11 12 12 13 13 14 14 15 13 13 13 9 9 15 16
2 7 5 8 9 9 11 13 13 13 12 12 13 12 12 11 12 11 10 10 10 9 9 8 8 9 8 8 8 8 9 9 9 9 9 9 8 8 8 10 10 10 11 13 14 14 14 14 14 13 13 13 13 12 12 12 12 12 12 11 11 11 11 10 10 10 11 10 11 10 9 8 11 11 12 14 15 15 13 14 13 12 10 16 14
5 6 5 8 9 9 9 11 12 11 11 11 12 12 11 11 12 12 10 10 10 9 9 8 9 9 8 8 8 8 8 8 8 8 9 8 9 9 9 9 10 11 11 13 13 13 13 13 13 13 13 13 13 13 12 12 11 11 11 10 10 10 10 10 8 9 9 9 10 7 5 6 8 11 11 12 14 14 13 14 14 15 15 15 16
6 6 6 6 8 8 9 9 11 11 10 12 12 12 12 11 12 12 10 10 10 10 9 8 8 8 8 8 8 8 8 7 7 8 7 8 8 8 8 8 8 10 11 12 12 13 12 12 12 13 13 13 13 13 12 12 11 11 11 10 10 10 9 9 8 7 8 8 8 6 5 6 6 10 10 12 13 13 13 14 14 14 14 15 15
7 6 6 6 8 9 9 10 11 11 10 12 12 12 12 12 12 12 11 10 10 10 9 8 8 8 8 8 8 8 7 7 7 7 6 6 7 7 8 7 8 9 10 10 12 12 12 12 12 12 13 13 13 13 13 12 11 11 10 10 9 9 8 8 7 7 7 8 6 5 6 6 6 6 10 10 12 13 12 13 13 13 14 14 13
8 5 6 6 8 8 8 9 10 11 11 12 12 12 12 12 12 12 11 11 11 10 10 9 7 8 8 8 8 8 7 7 7 7 6 6 6 7 8 7 7 8 9 9 10 11 11 12 12 12 12 13 13 12 12 12 11 11 10 9 9 8 8 7 7 7 7 4 4 6 5 6 6 5 9 9 10 11 12 12 12 12 13 13 13
4 3 5 5 7 6 7 8 8 10 11 11 11 11 12 12 11 12 11 11 11 10 10 9 8 8 8 8 8 7 7 7 7 7 6 6 5 6 7 7 7 8 9 9 8 11 12 12 12 11 11 11 11 11 10 10 9 9 8 8 7 7 7 7 7 7 7 4 4 4 4 4 4 4 8 9 10 10 11 12 11 12 12 13 11
5 4 4 5 7 6 6 7 8 8 11 11 10 9 10 12 10 11 11 11 11 10 10 10 9 8 9 9 8 7 7 6 6 6 6 5 5 5 5 7 6 7 8 8 9 10 10 11 10 9 9 10 10 10 9 8 8 8 7 7 7 6 7 7 7 6 5 4 4 4 4 3 3 5 7 9 10 12 11 9 9 11 12 11 10
4 4 4 4 5 7 6 6 9 8 11 11 9 9 11 11 10 11 10 9 9 10 10 10 11 10 9 9 8 8 7 7 6 6 6 5 5 5 6 5 6 7 7 7 7 8 8 8 9 7 8 10 10 9 8 7 6 6 6 6 6 6 7 7 6 5 4 4 5 5 5 3 5 5 6 7 10 11 10 9 9 8 8 10 11
4 3 3 3 5 6 6 7 7 7 9 8 9 9 10 10 10 10 10 9 9 9 9 9 10 10 10 9 9 9 8 8 7 8 6 6 5 6 6 5 6 7 8 6 5 5 6 7 8 7 8 9 9 8 8 7 6 5 5 4 5 6 7 7 5 4 3 4 3 3 4 4 3 3 6 7 10 11 9 7 8 9 10 11 10
4 2 2 3 3 5 6 6 5 7 7 7 9 8 10 10 10 10 9 9 9 9 9 9 9 9 9 8 9 9 8 8 8 8 8 7 7 7 6 6 7 8 7 7 4 4 2 5 9 7 7 7 7 7 7 6 5 5 4 4 6 7 8 7 4 3 3 3 3 3 3 3 0 4 7 8 9 10 9 9 9 9 10 10 10
5 4 3 3 4 5 6 6 5 6 7 7 8 9 9 10 10 10 10 9 9 9 8 8 7 8 8 9 9 7 8 9 9 8 9 8 8 7 7 7 7 7 5 7 8 6 9 3 5 9 7 7 7 6 6 6 6 6 5 5 7 8 8 6 3 2 3 3 2 2 2 2 0 2 7 8 9 9 9 8 8 8 9 9 8
5 5 4 4 4 5 7 6 6 5 7 7 8 9 9 8 10 10 10 9 9 7 8 8 8 8 8 7 7 8 7 8 8 10 8 8 8 8 8 9 8 6 6 7 7 7 8 11 11 9 7 7 6 6 6 6 6 6 6 6 7 7 6 4 3 2 2 2 2 3 2 1 1 5 4 5 5 6 7 6 7 8 8 8 8
4 5 5 3 3 4 6 7 6 6 6 7 7 9 10 9 10 9 10 9 8 7 8 7 7 8 8 7 8 7 6 7 8 8 9 8 8 8 8 7 7 5 5 5 5 4 5 6 9 8 7 7 6 6 6 6 6 6 5 6 6 6 5 3 2 2 2 2 2 3 2 2 4 4 2 2 3 4 5 5 6 6 7 7 8
1 2 1 1 1 1 3 5 5 5 5 6 6 7 8 9 8 9 8 8 8 7 7 7 6 6 6 6 7 7 5 6 8 7 8 8 8 8 8 7 7 6 6 5 4 3 9 8 8 8 7 6 6 6 6 6 5 6 5 5 5 5 5 2 2 2 2 2 1 1 1 2 6 1 3 2 4 4 5 5 6 5 6 7 7
3 1 0 1 2 1 2 4 4 3 4 4 5 6 7 8 8 8 8 7 7 6 6 7 7 7 6 6 5 3 3 4 5 6 5 6 8 6 6 7 7 5 5 4 3 7 10 9 9 8 7 7 7 6 6 5 6 6 5 5 5 5 4 3 2 2 1 1 1 1 1 3 5 6 2 6 5 4 5 4 5 5 6 6 6
5 4 2 1 2 2 2 2 4 5 5 4 4 5 6 7 7 8 7 7 7 6 6 6 6 6 6 5 4 2 5 4 4 6 7 4 5 4 5 6 6 5 4 3 8 9 9 9 8 7 7 7 6 6 6 5 6 6 5 5 5 5 4 3 2 1 2 1 1 1 2 5 5 5 7 6 5 4 4 4 4 4 4 4 4
5 5 5 3 3 2 2 3 4 5 7 5 4 5 6 7 7 7 7 7 6 6 6 6 6 5 4 4 4 4 5 5 4 3 5 3 2 4 3 3 5 4 4 5 8 9 9 9 8 7 7 6 6 7 6 6 6 6 6 6 5 5 4 2 2 1 1 2 2 2 2 6 3 3 5 4 4 4 3 3 4 3 3 3 3
7 7 5 5 5 4 3 3 4 6 8 6 4 5 5 6 7 8 7 8 7 7 7 6 5 4 4 3 3 4 4 3 7 5 7 5 4 3 3 1 4 5 4 8 8 8 8 8 8 8 7 7 7 7 6 5 5 6 6 5 4 3 2 1 1 1 1 2 1 1 4 6 3 1 0 2 2 2 2 2 3 3 2 2 2
7 6 7 6 7 6 4 3 5 6 7 7 4 5 5 7 5 9 8 7 7 8 7 6 5 3 2 3 4 3 3 3 4 3 3 5 5 6 5 3 2 2 5 7 9 8 7 7 7 8 8 8 8 8 8 7 7 6 6 5 3 2 1 1 1 1 1 2 2 2 7 5 3 3 3 0 1 1 1 2 2 2 2 1 3
7 9 8 8 8 6 6 4 4 6 6 5 4 4 4 4 5 5 8 5 6 6 5 5 3 4 5 3 3 2 3 4 5 4 4 4 4 6 7 4 1 5 7 9 11 9 8 8 8 8 8 8 7 3 3 5 7 7 6 4 2 1 1 1 1 1 2 2 3 3 8 5 2 3 1 1 1 1 2 1 1 0 0 2 0
9 9 8 9 8 7 7 7 5 5 7 7 5 4 4 5 5 5 4 9 4 4 5 5 4 5 4 4 3 3 3 2 1 1 3 6 7 9 7 6 6 7 6 6 8 9 8 10 10 8 8 7 4 2 2 2 2 5 4 3 1 2 2 2 1 1 1 2 2 5 8 6 3 3 1 1 0 1 1 1 2 1 1 1 2
8 7 9 7 7 7 8 8 7 7 7 6 5 4 4 4 4 5 3 2 7 6 3 4 6 5 4 3 3 4 4 3 5 5 3 3 3 7 8 10 7 5 6 6 8 8 9 11 11 7 4 2 2 1 2 1 2 2 2 2 2 2 2 2 1 2 2 2 2 7 8 8 5 3 2 1 1 1 2 2 2 1 2 1 1
7 8 5 8 8 8 7 7 8 6 6 6 6 4 4 4 3 4 6 4 1 1 4 7 5 5 6 5 4 4 4 3 3 4 4 4 3 2 2 4 5 5 5 4 4 6 5 3 4 3 2 2 2 1 1 2 1 1 2 2 2 2 2 2 2 2 2 2 3 7 8 9 8 5 4 3 2 2 2 2 2 2 1 1 0
6 6 10 9 9 8 7 6 6 7 6 5 5 4 3 4 4 5 4 3 4 8 6 4 2 5 4 6 6 6 4 4 3 4 4 4 6 5 3 3 4 5 4 3 1 6 5 4 3 3 2 2 2 1 1 1 2 1 1 2 2 2 2 2 2 2 2 2 3 8 9 11 11 8 6 6 5 3 3 3 4 4 3 2 2
8 7 7 7 8 10 9 7 5 4 5 4 3 4 4 3 4 3 4 5 8 6 6 4 2 3 5 7 6 5 5 5 5 4 5 3 1 1 2 3 2 5 6 5 6 6 6 5 4 4 3 2 2 2 2 2 1 2 1 1 2 2 2 2 2 2 2 2 4 8 9 10 12 12 10 8 7 6 5 4 5 6 4 4 3
5 8 8 8 8 11 11 8 4 3 4 3 3 4 3 3 3 2 6 6 3 3 4 5 4 4 4 4 5 5 5 5 6 6 5 0 2 3 3 3 3 1 3 4 7 3 2 2 4 4 4 2 3 2 2 1 1 1 1 1 1 1 1 1 1 2 2 2 2 5 8 10 12 13 12 11 10 8 7 6 6 8 6 5 3
10 11 9 10 10 9 10 8 5 1 2 2 4 2 3 4 2 4 2 3 6 2 3 3 1 2 2 3 3 2 4 6 6 6 5 4 4 3 3 2 1 2 2 2 1 4 3 3 5 5 3 4 3 3 2 1 1 1 1 1 1 1 1 1 1 2 2 1 2 3 7 9 11 12 13 13 13 12 11 10 7 8 8 6 4
9 9 10 9 10 10 9 10 5 2 1 2 1 3 3 2 4 2 2 2 5 3 2 1 4 4 3 1 2 3 3 2 3 4 5 5 4 2 1 3 1 1 0 1 0 1 3 3 2 3 2 3 3 2 2 1 1 1 1 0 1 0 0 0 1 1 1 1 2 2 5 7 8 10 12 13 14 14 13 12 10 8 9 8 7
8 10 9 10 9 10 10 10 8 4 3 3 4 5 5 5 4 4 3 3 6 3 5 5 2 0 1 2 2 1 2 3 4 4 5 5 6 6 6 5 5 5 4 3 1 3 2 2 2 2 3 3 2 2 2 2 1 1 1 0 0 1 1 0 0 1 1 1 1 2 3 4 7 8 9 11 13 14 14 13 12 10 10 9 9
9 11 8 8 9 11 10 11 9 7 4 5 5 6 5 5 5 4 3 3 5 5 4 4 7 6 5 5 3 1 2 2 1 1 1 0 3 4 3 5 6 5 6 6 6 4 3 2 2 1 1 1 2 1 1 2 2 1 0 0 0 0 1 1 1 1 1 1 1 1 1 3 4 7 7 9 11 12 13 13 12 12 13 11 10
6 7 9 8 10 10 9 10 10 9 9 8 7 7 7 7 7 9 10 9 9 10 9 9 8 8 8 9 8 8 7 7 4 2 2 3 0 2 2 2 2 1 1 1 4 3 3 3 2 2 3 2 2 2 1 1 1 1 1 1 0 1 0 1 1 1 2 1 1 1 1 1 2 4 5 7 8 10 12 13 13 13 12 12 12
6 6 8 10 8 6 6 7 10 10 10 9 9 8 9 9 9 9 9 10 10 10 10 9 10 9 10 12 10 9 8 6 6 6 6 4 3 2 4 5 5 5 3 1 1 1 2 2 3 2 1 2 3 2 2 2 2 1 1 1 1 1 0 1 1 1 2 2 1 1 1 1 1 2 2 4 6 8 10 11 13 13 13 12 11
6 7 10 8 8 8 7 8 10 11 12 12 12 12 11 11 10 10 11 11 10 11 10 9 11 8 10 11 11 9 9 9 8 7 7 6 6 6 6 5 5 5 4 3 3 2 2 0 2 3 2 2 2 1 2 2 2 2 1 1 1 1 1 2 2 2 2 2 1 2 2 2 2 1 1 2 3 4 6 9 11 12 13 13 12
9 7 6 7 9 9 9 12 13 13 12 12 12 11 11 10 10 10 10 11 11 10 9 9 9 9 10 9 12 13 12 10 9 9 10 9 7 7 5 5 6 5 6 5 5 6 5 5 6 5 3 3 2 2 1 3 3 3 2 2 2 2 2 2 3 3 2 1 2 2 2 2 2 2 2 2 2 3 4 6 8 10 12 13 13
7 8 8 8 10 10 10 10 12 14 13 14 13 12 12 12 12 11 11 11 11 10 9 8 8 9 10 11 10 10 9 9 10 11 8 8 8 7 7 7 6 7 6 5 6 4 6 6 5 5 5 5 6 6 4 4 4 4 3 4 3 3 4 3 3 2 1 3 2 2 2 3 2 3 2 2 2 2 2 4 6 7 8 10 12
7 8 7 7 8 8 8 9 8 8 7 8 9 11 10 11 11 11 12 13 11 9 8 7 10 10 10 9 9 9 10 12 12 10 11 10 9 8 9 11 9 7 6 6 6 3 3 3 3 3 3 3 3 4 4 4 3 4 4 3 4 2 3 3 3 3 3 4 3 3 3 2 2 3 3 2 2 2 2 3 4 5 5 7 10
7 8 8 7 6 7 7 9 9 8 7 7 8 8 10 11 11 11 12 11 10 10 9 10 9 10 11 10 11 10 9 11 11 9 9 8 9 8 8 9 8 7 6 6 7 7 6 5 4 3 3 4 2 1 0 2 2 3 4 4 3 4 3 3 3 3 4 4 4 3 2 3 2 3 3 2 2 3 3 3 3 3 3 4 8
7 7 8 8 8 8 7 8 9 7 5 7 5 8 9 8 9 9 12 11 10 10 11 10 10 10 9 9 10 10 9 10 10 9 9 9 8 8 8 9 8 7 8 8 8 7 7 6 6 6 5 4 4 3 2 2 3 4 5 3 3 4 5 3 3 4 3 3 4 3 4 2 3 2 2 2 2 3 3 3 3 3 3 4 6
8 8 8 10 10 7 9 11 6 6 7 7 7 6 7 7 10 10 9 8 8 8 10 10 11 9 11 11 11 10 11 11 11 10 9 10 9 8 8 8 7 8 8 8 6 5 4 4 4 6 5 6 4 4 3 2 3 3 0 3 4 2 3 3 3 2 3 3 2 4 2 3 3 3 2 2 3 2 3 3 3 3 3 3 4
9 9 9 8 7 8 9 6 6 8 9 7 6 8 7 7 9 8 9 8 8 10 9 10 9 9 11 12 11 10 11 11 10 10 10 10 10 9 9 8 7 7 7 8 9 7 7 7 5 3 3 4 3 3 4 4 4 4 5 6 3 3 2 2 1 1 2 3 2 2 2 3 4 3 3 3 3 3 3 3 3 4 4 4 4
6 7 7 8 9 8 7 7 7 7 7 7 7 7 6 6 8 6 7 9 9 8 9 7 8 10 11 11 10 10 10 10 11 11 10 10 10 10 9 9 10 8 9 10 9 10 8 8 7 4 4 3 2 2 4 5 2 3 3 3 3 5 2 2 1 4 5 2 1 1 2 3 3 2 2 3 3 3 3 3 4 4 4 4 4
6 8 9 8 6 7 7 7 7 7 7 7 7 7 9 10 10 10 10 9 8 6 8 8 9 11 13 10 10 10 10 10 10 10 9 10 10 9 8 9 9 9 9 9 10 10 10 10 9 8 5 5 5 4 3 3 1 3 3 2 3 2 4 2 7 9 4 3 1 1 1 2 2 2 2 3 4 3 3 3 5 5 5 5 5
7 8 8 7 5 7 6 7 7 7 6 6 6 5 6 8 7 8 7 8 7 7 8 11 9 9 9 12 10 10 10 10 10 11 10 10 10 9 9 8 9 8 7 8 8 8 8 7 8 7 8 6 6 5 4 3 2 2 1 2 2 1 2 5 8 7 1 5 6 4 2 2 2 2 2 3 3 3 3 4 4 5 5 5 5
8 8 6 6 6 6 6 7 7 7 7 8 6 5 5 6 5 7 9 9 11 9 10 8 8 10 9 6 10 10 10 10 11 11 11 10 10 9 9 9 9 8 8 7 7 8 10 10 9 8 9 9 4 5 6 5 3 2 4 2 1 3 5 4 5 5 3 6 4 3 3 4 2 3 2 3 4 3 2 4 4 5 5 5 5
7 5 6 6 6 6 7 7 7 7 7 8 6 6 9 8 11 10 9 9 10 7 5 5 6 6 6 9 9 10 10 10 11 10 10 10 10 10 10 10 9 9 8 8 9 8 7 8 7 8 7 6 7 7 7 7 3 3 5 4 4 3 2 3 3 5 9 1 2 5 5 4 2 2 3 3 4 3 4 3 4 5 5 5 5
4 5 6 6 7 7 8 8 7 7 7 7 9 6 9 8 10 11 9 9 9 8 6 6 5 5 8 8 7 8 9 9 9 10 10 10 9 10 9 9 10 9 8 9 9 7 7 7 8 7 7 7 7 7 6 7 6 6 7 6 5 4 3 4 6 5 5 9 8 2 3 3 2 4 5 5 5 5 5 4 4 5 4 5 5
5 6 6 5 5 6 8 8 10 9 7 9 9 9 8 8 9 8 11 7 7 7 6 5 7 5 10 7 8 7 8 9 9 9 9 9 9 9 9 9 9 9 8 8 8 9 10 10 10 10 9 8 7 6 5 6 6 6 7 6 6 5 5 3 3 2 4 8 12 8 7 4 6 5 5 4 4 4 4 5 5 5 5 5 5
4 5 6 5 6 6 8 12 11 8 7 9 9 10 9 7 9 8 12 8 7 6 6 7 7 6 9 8 7 8 7 8 9 9 9 9 9 9 9 9 9 8 8 8 8 9 9 9 9 9 9 9 7 7 7 5 5 5 5 4 5 6 5 4 2 6 5 5 9 12 11 12 12 6 4 6 6 5 4 4 4 5 5 5 5
4 5 5 6 5 7 9 13 9 7 7 9 9 10 8 7 8 8 10 11 8 7 8 8 6 7 8 7 7 7 7 7 7 8 9 8 8 8 8 8 8 7 8 8 8 7 7 7 7 8 9 9 8 8 8 7 6 6 7 5 5 4 4 4 6 6 6 6 8 10 11 10 10 14 5 5 5 5 5 4 5 5 5 5 5
Wind_Direction
223 221 210 200 194 188 174 175 172 166 163 157 154 151 147 141 140 135 133 130 126 125 125 130 126 125 126 124 118 114 111 108 104 97 88 79 75 72 74 89 93 99 98 93 87 83 79 75 70 67 62 60 57 53 51 51 50 52 54 55 53 52 52 52 56 51 49 51 57 64 66 63 67 68 70 70 68 63 58 54 52 55 53 59 56
177 204 194 190 196 190 177 173 171 169 168 161 158 155 150 143 138 137 136 133 131 128 131 136 132 127 126 123 119 119 117 112 104 95 91 92 90 90 85 89 93 89 95 95 90 83 78 76 74 71 64 59 56 54 52 51 50 52 52 53 52 51 50 53 53 52 52 50 42 43 41 64 65 69 71 71 69 66 60 56 51 57 59 57 56
221 177 187 192 192 189 179 174 172 171 171 164 161 157 150 143 140 138 137 136 133 132 134 140 134 133 131 128 125 122 121 116 108 99 97 89 85 84 84 87 100 98 88 92 90 87 85 85 81 77 73 68 65 61 55 52 50 50 51 48 47 48 51 53 57 56 53 48 45 38 35 33 65 69 71 70 71 68 63 59 55 56 59 58 58
176 173 183 187 193 186 183 173 170 171 170 163 163 157 150 147 142 139 141 139 138 134 136 143 142 139 134 130 128 124 122 117 110 104 90 83 80 74 71 80 97 98 99 93 92 92 90 87 83 79 74 67 61 58 54 49 47 46 46 45 42 43 48 53 60 61 59 59 53 49 47 60 66 69 70 71 70 67 65 63 61 58 57 57 55
182 170 179 181 188 185 182 174 167 168 167 161 164 157 153 151 145 142 146 144 144 139 140 147 149 141 134 134 134 129 121 114 109 103 93 85 77 73 75 79 92 104 100 99 98 94 90 84 80 76 71 65 57 51 48 45 42 41 41 39 38 39 45 50 56 68 68 59 59 53 52 52 48 64 72 79 78 71 66 61 59 57 53 51 52
181 169 173 180 183 185 180 176 168 167 166 165 163 160 156 154 151 149 152 149 148 142 144 153 154 145 140 140 134 128 124 117 113 102 93 87 77 73 73 78 95 105 105 104 99 94 88 83 77 73 69 66 57 48 42 38 34 33 35 33 32 36 44 52 64 69 65 68 61 64 62 55 66 70 67 69 77 78 73 68 63 60 57 52 50
182 168 169 174 183 185 180 178 171 168 170 165 164 162 159 157 157 155 155 153 152 148 151 154 164 151 146 144 135 133 130 127 117 112 102 89 76 68 69 77 90 102 105 103 100 92 82 76 70 67 64 62 59 51 42 35 29 27 28 29 27 29 36 48 64 79 74 70 72 73 66 66 66 76 80 82 76 76 76 73 68 63 60 55 48
161 164 170 170 182 184 183 178 177 172 170 162 165 165 163 161 159 160 159 158 155 155 154 156 167 160 153 147 141 138 139 132 123 117 110 99 82 70 73 79 96 109 104 100 93 87 84 78 70 64 62 62 58 54 46 36 27 22 26 30 32 33 38 51 62 66 61 70 71 68 71 66 56 66 85 84 76 70 69 70 68 65 61 59 52
160 167 164 169 181 180 185 182 178 176 171 161 166 168 167 165 162 164 165 165 160 159 158 158 165 169 161 154 148 147 145 136 125 117 116 108 95 88 89 86 95 108 103 103 92 89 89 84 73 60 60 60 58 51 44 39 30 21 21 28 40 47 55 60 61 63 63 67 63 64 65 70 66 80 85 86 81 74 68 69 70 68 64 60 57
155 165 167 168 174 181 184 189 185 180 178 164 163 170 173 167 165 169 170 168 168 165 164 164 165 170 165 157 155 156 147 142 138 129 126 123 115 110 112 107 106 116 112 106 101 98 90 85 82 65 58 59 55 50 40 36 38 29 22 29 45 61 65 69 66 68 76 77 78 72 64 56 89 87 90 84 79 79 78 69 70 67 71 69 58
149 163 170 165 177 179 190 194 188 183 189 164 165 170 176 171 171 174 173 174 177 172 169 173 171 173 170 165 162 159 159 153 153 147 144 140 142 132 123 124 125 118 123 123 109 98 88 90 88 80 65 61 56 48 44 36 34 39 30 35 54 72 79 76 59 80 75 88 80 71 66 49 86 89 90 87 88 86 81 75 70 66 61 60 55
161 159 169 179 175 186 191 200 196 188 196 177 171 170 178 177 178 183 183 183 184 182 179 182 179 180 175 174 169 168 167 165 165 153 146 148 150 144 141 136 135 128 131 146 127 92 6 83 111 91 86 71 60 53 47 46 38 37 39 43 61 79 86 82 79 79 71 82 72 49 82 99 92 101 99 97 93 89 78 64 56 52 52 50 50
164 170 172 180 183 188 192 201 197 199 194 183 179 180 184 188 186 189 190 190 189 189 192 189 185 193 189 182 175 183 177 173 169 160 152 153 156 154 150 142 129 129 117 73 64 47 30 88 100 104 91 79 69 59 55 50 45 38 38 49 63 73 85 86 95 81 87 100 58 39 67 103 13 321 96 90 83 72 61 52 49 44 46 39 34
163 182 181 181 195 197 191 198 198 205 197 188 187 186 188 189 189 196 195 190 195 194 198 194 196 199 202 196 189 192 192 174 181 162 161 159 158 157 149 144 140 116 94 74 64 48 49 87 106 109 99 83 74 67 67 61 51 45 44 47 57 66 73 75 56 57 61 43 24 22 16 346 283 295 109 86 72 65 62 53 47 49 40 35 29
180 193 192 186 193 205 199 197 199 205 209 192 191 193 194 194 191 196 200 198 192 196 200 205 198 204 205 205 204 207 200 186 194 171 166 162 161 161 159 156 137 120 99 83 60 56 64 103 105 105 97 88 82 78 75 70 60 54 54 56 60 64 55 84 65 71 62 50 32 7 339 335 321 287 135 116 83 70 65 61 46 43 38 31 26
188 191 286 254 228 228 222 215 212 210 221 205 195 192 199 202 198 198 199 198 198 194 196 204 210 208 205 212 216 220 188 196 201 185 172 166 166 167 157 153 145 141 131 119 108 78 108 114 110 108 99 89 83 83 81 78 70 66 64 66 70 72 65 71 91 78 78 73 358 355 330 343 3 263 223 52 68 66 59 49 53 43 33 29 28
46 72 53 325 358 308 274 233 226 226 234 234 206 196 195 206 206 200 201 197 193 194 193 196 204 212 210 209 222 241 180 195 208 201 180 179 175 166 166 159 153 149 133 124 106 105 121 118 115 110 105 94 85 82 82 80 71 70 72 78 78 77 67 83 91 91 99 88 59 348 356 30 20 29 3 136 104 65 66 61 56 45 26 25 39
17 16 30 17 328 318 300 258 233 222 220 225 231 209 196 198 205 209 198 192 188 196 197 194 208 209 205 210 209 187 177 174 199 187 185 204 168 172 170 167 162 155 145 112 107 116 119 118 116 114 106 98 90 82 82 79 73 73 76 77 74 68 62 62 80 87 79 75 54 19 33 4 29 43 49 53 79 88 87 68 49 38 29 39 45
32 26 11 9 328 331 298 261 245 225 218 216 212 208 203 201 191 196 204 193 191 186 190 194 203 211 203 202 177 165 176 182 125 245 175 197 167 172 176 195 171 179 145 115 117 115 120 120 118 112 105 96 86 78 73 71 75 74 79 75 61 56 52 46 60 39 42 52 26 25 15 350 11 61 55 62 83 91 72 64 62 40 26 60 68
35 25 13 357 349 325 297 278 247 236 226 222 210 202 194 205 202 181 190 196 189 195 192 192 195 201 197 196 151 154 174 164 156 203 172 190 179 175 168 189 170 190 163 120 118 120 121 121 118 109 101 88 74 70 64 61 66 73 75 72 65 55 56 49 33 35 16 26 1 11 348 344 360 305 168 26 48 62 57 53 62 76 75 83 79
2 17 12 354 336 326 311 274 253 246 234 229 222 211 199 186 227 182 183 189 183 196 218 189 174 172 172 149 154 206 178 175 163 167 178 211 180 171 152 183 123 135 130 127 125 129 126 119 111 105 95 83 74 62 50 42 43 59 63 54 53 63 49 35 22 25 30 359 1 352 342 339 337 296 298 276 329 332 43 70 64 106 110 72 45
348 343 352 350 344 325 304 290 251 249 244 229 217 217 198 192 204 232 175 192 190 189 185 203 176 193 155 151 159 177 200 198 171 162 189 201 188 188 158 163 175 155 143 145 143 139 133 122 107 102 92 86 78 72 55 40 28 37 47 40 28 41 32 21 17 9 14 13 339 343 338 335 308 280 268 266 274 77 93 109 110 92 19 95 203
352 349 339 346 346 330 315 288 264 251 244 238 224 202 205 186 194 222 224 169 187 205 184 187 214 181 182 183 175 181 197 204 251 171 159 194 187 191 174 154 185 171 157 146 137 133 131 118 109 101 96 90 81 85 73 56 40 19 39 33 30 20 11 9 5 5 7 348 293 337 333 339 302 283 275 275 171 143 162 149 129 98 88 48 22
338 335 324 327 340 341 331 310 272 245 233 232 228 206 200 192 186 196 249 254 177 192 239 204 196 177 178 175 176 177 178 171 154 166 173 235 249 188 189 172 155 140 148 146 137 129 127 121 113 111 99 92 103 93 92 95 73 34 30 33 20 10 2 360 358 356 348 336 317 332 335 338 331 293 281 271 269 184 214 211 168 180 160 121 147
327 312 318 334 337 335 332 321 310 246 230 225 228 219 188 194 183 181 197 229 250 2 229 207 211 192 175 182 186 185 185 172 174 178 196 179 175 204 193 176 143 159 165 128 149 124 124 122 109 108 123 124 115 99 112 103 88 75 47 38 24 4 352 355 349 345 347 339 326 338 339 335 335 325 293 267 248 233 235 226 222 198 164 189 257
323 343 339 330 334 331 321 314 305 294 233 228 219 220 191 197 187 173 191 188 238 216 238 247 293 219 187 177 179 193 194 193 187 208 195 205 195 171 150 295 146 162 169 140 159 138 135 161 140 129 116 108 90 109 102 95 118 106 71 44 33 11 355 353 350 343 346 343 336 342 341 337 328 325 321 303 278 247 250 247 247 229 189 189 239
344 339 329 328 331 338 336 323 299 301 274 205 198 197 196 185 168 164 190 208 203 193 225 296 242 250 227 201 189 193 193 181 185 187 197 154 251 40 132 163 269 195 174 171 167 167 164 160 128 128 133 138 122 126 111 103 84 107 98 72 43 20 3 354 354 345 342 343 334 338 339 336 331 327 323 316 302 275 261 261 263 258 228 223 210
332 340 342 340 345 343 338 331 306 287 299 201 209 196 194 161 150 164 178 249 319 195 179 208 209 219 197 238 254 193 176 197 188 177 170 54 305 174 149 195 157 36 325 181 155 168 107 115 123 140 154 149 151 133 123 111 105 92 109 95 74 43 18 357 342 337 333 335 336 335 338 336 331 327 324 316 309 301 277 264 264 273 270 248 210
1 354 340 351 347 339 345 346 332 299 222 316 167 181 158 146 142 157 191 238 277 332 312 321 9 51 319 255 173 258 261 202 181 185 153 172 172 164 166 140 49 350 171 230 97 155 153 152 177 155 168 167 156 150 144 117 109 78 81 114 125 103 70 6 349 333 330 332 333 329 335 338 335 331 326 322 314 308 302 294 265 269 277 288 250
353 335 348 352 345 339 353 359 3 6 50 351 84 113 103 99 110 51 115 175 206 274 281 109 31 25 38 51 342 267 230 271 190 162 153 191 178 54 32 103 79 97 4 301 313 272 177 183 170 142 174 166 157 148 149 150 122 88 47 28 17 7 107 33 327 327 320 321 325 318 332 337 338 334 331 327 321 315 311 312 295 265 270 272 273
339 354 349 348 340 347 3 3 15 23 60 65 50 69 69 81 48 78 9 34 29 354 326 345 90 115 26 339 298 330 242 147 202 173 180 188 200 177 169 167 161 167 163 205 168 190 191 291 151 172 191 164 167 131 156 167 166 147 79 359 18 316 338 354 282 278 308 324 320 319 322 333 337 334 331 326 323 321 315 312 305 290 276 275 269
355 352 344 333 351 1 3 12 12 24 58 76 73 65 65 54 48 54 71 47 31 321 345 359 356 351 11 357 348 71 116 114 100 200 98 153 225 211 205 196 192 165 171 179 178 164 148 132 116 112 115 117 120 148 157 190 195 165 134 196 120 323 320 330 297 286 292 278 280 296 314 326 325 330 330 328 325 325 322 316 309 302 298 285 280
344 337 334 342 5 358 3 12 24 33 44 41 43 48 45 46 43 38 35 35 35 38 39 33 30 32 32 33 28 18 16 11 341 311 197 163 145 323 334 319 359 322 245 165 132 120 141 138 118 151 126 115 131 143 141 218 214 190 191 181 190 205 210 257 281 292 288 269 243 231 265 290 299 318 323 326 325 324 323 321 317 310 299 290 281
341 341 342 8 358 1 14 28 33 43 48 56 57 60 57 55 51 52 50 51 45 47 40 34 40 32 36 32 27 28 29 32 41 39 22 6 12 10 353 5 3 17 19 28 126 165 135 138 148 129 128 183 185 170 191 213 206 199 222 178 239 259 228 259 244 260 260 261 263 264 259 241 278 303 311 312 320 325 324 323 324 320 313 307 302
345 355 4 352 6 14 21 45 34 50 56 60 65 66 65 65 61 54 50 52 53 52 44 36 45 31 43 34 27 28 31 27 27 43 51 51 48 42 38 27 27 43 48 22 1 350 307 146 129 128 124 212 225 216 227 236 228 228 234 231 259 254 231 244 245 240 235 253 272 282 299 302 290 253 278 288 306 306 318 322 322 323 323 322 317
6 352 351 357 21 17 24 53 52 55 58 63 68 68 68 66 66 64 64 57 55 49 46 41 44 41 43 34 25 32 29 27 32 41 49 40 40 42 39 36 43 52 48 38 37 27 10 7 16 357 346 333 329 303 7 341 347 324 338 318 307 294 273 250 253 254 253 264 258 263 250 260 265 273 271 273 280 289 303 318 319 319 326 331 327
356 6 8 8 26 17 21 26 46 58 64 67 68 69 69 66 65 65 66 62 55 51 43 40 41 45 41 41 29 35 31 39 38 41 51 43 43 41 40 45 47 53 52 53 54 52 44 26 33 37 25 350 359 349 1 6 343 332 322 312 308 303 292 300 286 280 284 253 246 242 245 241 230 246 257 271 264 274 270 301 312 318 327 327 324
6 16 14 24 30 23 26 27 21 25 40 55 63 68 70 70 64 60 60 60 56 56 51 42 45 41 42 41 32 31 30 38 37 36 49 42 39 33 32 39 46 49 46 44 51 44 64 65 70 64 82 93 38 13 358 353 342 314 310 308 304 285 286 286 279 281 273 272 250 244 254 256 250 243 245 245 261 275 279 279 297 309 321 321 317
12 15 23 27 38 35 35 32 26 18 31 39 61 70 71 71 72 66 60 56 55 51 44 41 40 40 36 33 29 33 26 38 41 39 48 44 46 41 36 28 34 42 45 36 35 31 39 36 39 54 49 50 57 74 228 282 309 266 272 273 265 253 252 239 249 254 258 266 285 290 269 261 267 262 276 276 287 285 288 304 306 305 292 305 310
14 12 26 32 36 40 45 44 31 18 31 50 48 69 67 59 69 67 55 47 49 52 46 44 39 41 29 35 34 34 26 32 30 27 44 42 42 37 40 36 40 44 52 44 33 25 19 25 29 29 28 52 57 358 307 308 292 282 286 281 246 256 242 236 251 254 298 308 295 289 272 287 277 292 290 293 281 280 293 299 290 289 293 290 292
22 15 27 31 34 33 45 42 22 27 43 47 47 47 64 76 63 59 64 53 52 51 52 44 45 38 31 35 35 35 32 37 31 30 33 40 40 35 36 31 32 43 51 51 45 36 31 31 46 30 21 32 28 340 334 336 323 308 268 270 301 248 269 250 273 334 283 262 251 266 298 304 278 273 285 288 280 294 298 288 282 280 279 283 282
7 11 26 26 33 37 53 51 32 43 41 43 63 63 53 64 86 72 79 59 46 46 47 42 41 41 39 37 36 33 35 40 37 40 41 38 41 39 33 27 22 29 42 43 41 35 28 35 30 47 43 62 58 345 341 330 34 18 328 333 318 317 293 21 7 269 288 265 277 300 302 277 281 308 313 300 297 288 267 261 256 257 255 259 265
1 18 11 28 30 36 41 46 44 51 49 47 57 72 70 64 80 85 79 84 62 62 64 57 51 52 46 42 39 38 38 39 36 39 44 40 43 46 38 33 32 24 35 35 27 27 18 19 17 20 9 36 101 353 8 46 29 281 265 274 347 335 359 31 311 328 316 342 309 273 267 276 304 325 300 285 278 271 263 266 267 262 269 265 265
16 21 16 24 26 35 37 46 48 46 47 40 62 76 83 86 77 84 78 73 80 73 73 59 53 49 45 39 40 39 40 46 40 43 48 47 45 47 43 41 39 34 40 40 32 27 21 19 13 13 356 28 10 20 38 14 74 338 355 358 311 335 317 51 343 317 332 289 328 322 325 297 291 285 271 273 278 281 282 278 276 279 278 275 276
26 23 13 15 21 29 38 50 54 55 54 45 46 71 100 89 92 85 85 92 70 61 58 47 43 48 52 37 32 33 38 43 40 41 44 48 47 47 48 46 45 38 40 44 40 34 28 24 17 22 22 15 18 10 18 357 332 319 323 342 338 340 338 322 329 301 342 349 315 359 322 298 306 293 288 283 282 276 282 277 271 276 273 275 273
33 18 3 8 15 33 39 49 59 53 52 51 49 74 67 86 99 87 74 67 61 43 46 47 38 39 49 46 44 37 37 43 40 38 39 40 43 41 43 45 42 40 39 46 39 32 27 24 16 22 21 16 11 24 16 1 355 345 328 345 213 279 309 316 345 310 311 279 267 282 311 296 303 318 307 296 290 288 261 271 263 265 261 262 264
27 9 13 17 21 41 47 48 51 52 43 51 52 76 81 77 75 77 83 79 90 69 69 57 63 60 57 51 50 42 37 42 40 37 37 37 40 36 36 39 40 39 32 40 39 32 29 28 15 27 22 13 17 35 23 2 3 48 3 332 324 316 301 298 295 315 312 12 183 295 298 289 330 305 284 273 277 281 274 255 267 263 265 255 256
357 26 40 20 30 36 52 55 52 53 41 42 59 43 83 82 86 84 76 79 81 97 80 74 69 69 65 55 52 48 45 42 43 41 39 39 39 40 35 36 38 32 28 33 31 21 27 30 31 26 26 28 23 29 17 16 18 357 355 1 345 310 295 276 257 270 287 303 303 180 222 278 329 289 282 280 273 265 273 268 259 262 260 258 251
5 27 36 32 30 34 54 61 56 52 42 46 61 56 70 82 87 93 91 81 90 90 90 79 75 62 70 56 54 50 48 45 43 44 40 41 40 42 39 41 40 36 31 32 27 23 24 21 17 20 20 21 23 14 27 20 14 11 355 1 354 356 326 260 295 307 294 307 298 313 314 302 282 264 266 260 266 261 257 266 266 265 267 264 256
4 20 39 43 41 43 61 62 54 46 41 52 62 65 67 79 88 91 96 96 91 88 81 76 69 59 70 58 52 50 43 43 40 38 37 36 38 36 39 39 38 37 36 33 27 26 23 24 22 21 17 18 15 17 22 8 11 10 18 357 9 347 354 3 25 343 300 251 287 311 317 324 318 315 315 293 276 263 262 260 265 259 260 262 260
28 42 49 47 46 57 72 68 49 49 46 54 64 70 70 68 84 86 92 99 92 94 90 73 69 64 67 59 56 54 49 48 42 40 39 35 38 36 36 35 35 33 30 28 25 22 20 20 19 22 25 21 14 7 11 13 4 6 8 8 5 4 355 335 327 334 326 314 309 305 313 310 305 307 308 290 284 279 277 270 268 259 257 259 260